[[{"header":{"parameterUnit":"m.s-1","parameterCategory":2,"la1":30.2992,"la2":30.254,"lo1":-89.0895,"lo2":-89.0443,"dy":0.0025,"dx":0.0025,"nx":19,"ny":19,"refTime":"2026-05-07T09:00:00:Z","depth":"0","parameterNumber":2,"parameterNumberName":"U-component_of_CURRENTS"},"data":[0,0,0,-0.0838,-0.0841,-0.0941,-0.0942,-0.1071,-0.1072,0,0,0,0,0,0,0,0,0,0,0,-0.0791,-0.0791,-0.0838,-0.0841,-0.0941,-0.0942,-0.107,-0.1072,0,0,0,0,0,0,0,0,0,0,0,-0.079,-0.0791,-0.0792,-0.0841,-0.0941,-0.0942,-0.107,-0.0991,0,0,0,0,0,0,0,0,0,0,-0.0893,-0.0822,-0.0791,-0.0792,-0.0842,-0.0941,-0.0942,-0.0988,-0.0996,-0.1029,0,-0.1046,0,-0.1074,-0.1082,-0.1082,0,0,0,-0.083,-0.0815,-0.0878,-0.0792,-0.0843,-0.0941,-0.0893,-0.0992,-0.1002,-0.104,-0.1048,-0.1053,-0.1076,-0.1083,-0.1083,-0.1248,-0.1249,0,0,-0.0824,-0.0776,-0.0871,-0.0884,-0.0872,-0.089,-0.0896,-0.0998,-0.0989,-0.1048,-0.1056,-0.1078,-0.1084,-0.1085,-0.1247,-0.1248,0,0,0,-0.0816,-0.0772,-0.0831,-0.0878,-0.0903,-0.0893,-0.09,-0.0983,-0.1014,-0.1058,-0.108,-0.1084,-0.1086,-0.1247,-0.1248,-0.1155,0,0,0,-0.0812,-0.0769,-0.0829,-0.0796,-0.0901,-0.0938,-0.0882,-0.1006,-0.1019,-0.1079,-0.1084,-0.1088,-0.1246,-0.1247,-0.1156,-0.1066,0,0,0,-0.0786,-0.0765,-0.0786,-0.0794,-0.0849,-0.0937,-0.0971,-0.1009,-0.1033,-0.1082,-0.1088,-0.1245,-0.1247,-0.1157,-0.107,-0.0969,0,0,0,-0.0722,-0.0748,-0.0784,-0.0812,-0.0848,-0.0921,-0.097,-0.1016,-0.1053,-0.1085,-0.1246,-0.1248,-0.1157,-0.1072,-0.0972,-0.0764,-0.073,0,0,-0.0727,-0.0746,-0.0767,-0.0804,-0.0851,-0.0906,-0.0948,-0.1018,-0.1097,-0.1208,-0.1212,-0.1156,-0.107,-0.0969,-0.0864,-0.0826,0,0,0,-0.0751,-0.076,-0.078,-0.0814,-0.0878,-0.0903,-0.0986,-0.1039,-0.1138,-0.1133,-0.1217,-0.1167,-0.1104,-0.099,-0.0962,-0.0922,-0.1256,-0.1255,-0.1255,-0.0677,-0.073,-0.0741,-0.0803,-0.0841,-0.0916,-0.0937,-0.1036,-0.1126,-0.1174,-0.1139,-0.106,-0.0943,-0.0918,-0.0884,-0.1221,-0.1221,-0.1221,-0.122,-0.0646,-0.0643,-0.0694,-0.0723,-0.0773,-0.0811,-0.0914,-0.0968,-0.1011,-0.1128,-0.1073,-0.0959,-0.088,-0.0855,-0.1216,-0.1216,-0.1217,-0.1217,-0.1218,-0.0565,-0.057,-0.0597,-0.0624,-0.0647,-0.0725,-0.072,-0.0816,-0.0895,-0.086,-0.073,-0.073,-0.0658,-0.0841,-0.084,-0.0839,-0.0838,-0.0838,-0.0837,-0.0459,-0.0493,-0.0478,-0.0516,-0.0517,-0.0539,-0.0602,-0.0585,-0.0544,-0.0581,-0.058,-0.0625,-0.0942,-0.0899,-0.0825,-0.0827,-0.0829,-0.083,-0.0831,-0.0357,-0.0382,-0.0358,-0.0353,-0.0357,-0.0324,-0.0379,-0.0247,-0.0216,-0.0122,-0.0196,-0.0428,-0.0415,-0.0438,-0.0385,-0.0181,-0.0181,-0.0181,-0.0181,-0.0274,-0.0289,-0.0252,-0.0224,-0.0202,-0.0224,-0.0048,0.0061,0.0139,0.0184,0.0087,0.0024,-0.0004,0.0025,-0.0009,0.0048,0.0357,0.0358,0.0358,-0.0195,-0.021,-0.0153,-0.0155,-0.0131,-0.01,0.0093,0.0332,0.045,0.0372,0.0103,0.0081,-0.0035,-0.0082,-0.0065,-0.0116,-0.0036,0,0]},{"header":{"parameterUnit":"m.s-1","parameterCategory":2,"la1":30.2992,"la2":30.254,"lo1":-89.0895,"lo2":-89.0443,"dy":0.0025,"dx":0.0025,"nx":19,"ny":19,"refTime":"2026-05-07T09:00:00:Z","depth":"0","parameterNumber":3,"parameterNumberName":"V-component_of_CURRENTS"},"data":[0,0,0,-0.0341,-0.034,-0.0291,-0.0291,-0.0191,-0.019,0,0,0,0,0,0,0,0,0,0,0,-0.0356,-0.0356,-0.0341,-0.034,-0.0291,-0.0291,-0.0191,-0.019,0,0,0,0,0,0,0,0,0,0,0,-0.0356,-0.0356,-0.0356,-0.034,-0.0291,-0.0291,-0.0191,-0.0234,0,0,0,0,0,0,0,0,0,0,-0.0285,-0.0306,-0.0356,-0.0356,-0.034,-0.0291,-0.029,-0.0236,-0.0231,-0.0207,0,-0.0208,0,-0.0202,-0.0183,-0.0183,0,0,0,-0.0326,-0.031,-0.0303,-0.0356,-0.0339,-0.0291,-0.0309,-0.0233,-0.0228,-0.02,-0.0206,-0.0203,-0.0201,-0.0183,-0.0182,-0.0244,-0.0245,0,0,-0.0329,-0.0337,-0.0307,-0.03,-0.0337,-0.0311,-0.0308,-0.023,-0.0224,-0.0206,-0.0201,-0.0199,-0.0182,-0.0182,-0.0242,-0.0244,0,0,0,-0.0346,-0.0339,-0.0333,-0.0304,-0.0301,-0.031,-0.0306,-0.0228,-0.0228,-0.02,-0.0198,-0.0182,-0.0181,-0.0241,-0.0243,-0.0357,0,0,0,-0.0347,-0.035,-0.0335,-0.0338,-0.0303,-0.0268,-0.0305,-0.0233,-0.0225,-0.0198,-0.0182,-0.018,-0.0239,-0.0242,-0.035,-0.0328,0,0,0,-0.0356,-0.035,-0.035,-0.0339,-0.0325,-0.027,-0.0265,-0.0231,-0.0224,-0.0183,-0.0179,-0.0238,-0.0241,-0.0345,-0.0321,-0.0295,0,0,0,-0.0359,-0.0385,-0.035,-0.038,-0.0325,-0.0366,-0.0265,-0.0273,-0.0253,-0.0181,-0.024,-0.0243,-0.0343,-0.0317,-0.0292,-0.0211,-0.0219,0,0,-0.04,-0.0389,-0.0411,-0.038,-0.0435,-0.0371,-0.0427,-0.0345,-0.0293,-0.0255,-0.0257,-0.0352,-0.032,-0.0295,-0.04,-0.0401,0,0,0,-0.0432,-0.0443,-0.0458,-0.0471,-0.0486,-0.0486,-0.0439,-0.0433,-0.0417,-0.0297,-0.0387,-0.0362,-0.0342,-0.0289,-0.0292,-0.0057,-0.0258,-0.0257,-0.0257,-0.0492,-0.0498,-0.0539,-0.055,-0.0574,-0.0573,-0.0576,-0.0555,-0.0514,-0.0553,-0.0485,-0.0574,-0.0528,-0.0526,-0.0289,-0.0556,-0.0556,-0.0557,-0.0557,-0.0557,-0.0573,-0.0582,-0.062,-0.0631,-0.0667,-0.0677,-0.0664,-0.0656,-0.0638,-0.0614,-0.0449,-0.0535,-0.0281,-0.0565,-0.0563,-0.0562,-0.0562,-0.0561,-0.0593,-0.0596,-0.0618,-0.0655,-0.0686,-0.0696,-0.0684,-0.0698,-0.0701,-0.0704,-0.0572,-0.0568,-0.0306,-0.0686,-0.0685,-0.0685,-0.0685,-0.0685,-0.0685,-0.0608,-0.063,-0.0658,-0.0686,-0.0698,-0.0694,-0.0681,-0.0662,-0.0635,-0.0633,-0.0632,-0.0314,-0.061,-0.0561,-0.0683,-0.0683,-0.0684,-0.0684,-0.0684,-0.0629,-0.0645,-0.0674,-0.0691,-0.0701,-0.0649,-0.0636,-0.0554,-0.0546,-0.0521,-0.0258,-0.0585,-0.0504,-0.0501,-0.0449,-0.0533,-0.0533,-0.0533,-0.0533,-0.0633,-0.0648,-0.0676,-0.0696,-0.0687,-0.0631,-0.0478,-0.0398,-0.0241,-0.011,-0.0066,-0.0028,-0.0045,0.0067,0.0057,0.0122,0.0184,0.0185,0.0186,-0.0636,-0.0641,-0.0656,-0.0684,-0.0682,-0.0572,-0.0361,-0.0158,0.0077,0.0238,0.0246,0.0215,0.0289,0.0245,0.0433,0.04,0.051,0,0]}],[{"header":{"parameterUnit":"m.s-1","parameterCategory":2,"la1":30.2992,"la2":30.254,"lo1":-89.0895,"lo2":-89.0443,"dy":0.0025,"dx":0.0025,"nx":19,"ny":19,"refTime":"2026-05-07T09:00:00:Z","depth":"2","parameterNumber":2,"parameterNumberName":"U-component_of_CURRENTS"},"data":[0,0,0,-0.2419,-0.2421,-0.25,-0.25,-0.2491,-0.2491,0,0,0,0,0,0,0,0,0,0,0,-0.2383,-0.2383,-0.2419,-0.2421,-0.25,-0.25,-0.2491,-0.2491,0,0,0,0,0,0,0,0,0,0,0,-0.2383,-0.2383,-0.2384,-0.2421,-0.25,-0.25,-0.2491,-0.2459,0,0,0,0,0,0,0,0,0,0,-0.2395,-0.2355,-0.2383,-0.2384,-0.2422,-0.25,-0.25,-0.2458,-0.2461,-0.2425,0,-0.2436,0,-0.2465,-0.2488,-0.2488,0,0,0,-0.2419,-0.2353,-0.2399,-0.2384,-0.2422,-0.2499,-0.2464,-0.246,-0.2463,-0.2427,-0.2437,-0.2437,-0.2465,-0.2488,-0.2487,-0.2548,-0.2548,0,0,-0.2415,-0.2371,-0.2398,-0.2401,-0.2439,-0.2461,-0.2466,-0.2463,-0.2446,-0.2437,-0.2438,-0.2465,-0.2487,-0.2487,-0.2547,-0.2548,0,0,0,-0.2403,-0.2367,-0.2416,-0.24,-0.2425,-0.2463,-0.2469,-0.2446,-0.2469,-0.2438,-0.2465,-0.2487,-0.2487,-0.2546,-0.2547,-0.2509,0,0,0,-0.2401,-0.2362,-0.2414,-0.2385,-0.2425,-0.2446,-0.2451,-0.247,-0.2471,-0.2465,-0.2487,-0.2486,-0.2544,-0.2546,-0.2508,-0.2381,0,0,0,-0.238,-0.2359,-0.2374,-0.2383,-0.2423,-0.2447,-0.247,-0.2471,-0.2486,-0.2488,-0.2486,-0.2544,-0.2546,-0.2507,-0.2384,-0.2285,0,0,0,-0.2326,-0.2359,-0.2372,-0.2412,-0.2422,-0.2487,-0.2471,-0.2503,-0.2509,-0.2487,-0.2545,-0.2547,-0.2506,-0.2385,-0.2288,-0.2135,-0.2109,0,0,-0.235,-0.2359,-0.239,-0.2407,-0.2471,-0.2477,-0.2535,-0.2535,-0.2534,-0.2534,-0.2536,-0.2508,-0.2384,-0.2286,-0.2271,-0.224,0,0,0,-0.2388,-0.2399,-0.2421,-0.2458,-0.2507,-0.2513,-0.2557,-0.2569,-0.2583,-0.255,-0.2567,-0.2489,-0.2427,-0.2345,-0.2323,-0.2558,-0.2558,-0.2557,-0.2557,-0.2318,-0.2385,-0.2416,-0.2489,-0.2506,-0.2556,-0.2552,-0.2577,-0.2609,-0.2633,-0.2507,-0.2458,-0.238,-0.2359,-0.2622,-0.2622,-0.2621,-0.2621,-0.2621,-0.2334,-0.2346,-0.2388,-0.2422,-0.244,-0.2447,-0.2501,-0.2529,-0.2485,-0.2554,-0.2499,-0.237,-0.233,-0.262,-0.262,-0.262,-0.262,-0.262,-0.2621,-0.228,-0.2289,-0.2304,-0.2318,-0.2271,-0.2304,-0.2226,-0.2283,-0.2349,-0.2308,-0.2176,-0.2175,-0.232,-0.2278,-0.2277,-0.2276,-0.2275,-0.2274,-0.2274,-0.2187,-0.2223,-0.2164,-0.218,-0.2109,-0.2032,-0.202,-0.2005,-0.1989,-0.2039,-0.204,-0.2339,-0.235,-0.2299,-0.2259,-0.2262,-0.2264,-0.2265,-0.2266,-0.2079,-0.2073,-0.2007,-0.1942,-0.1836,-0.1707,-0.1763,-0.1674,-0.1668,-0.1632,-0.1903,-0.1917,-0.1873,-0.1893,-0.1833,-0.1673,-0.1673,-0.1673,-0.1673,-0.1939,-0.1966,-0.1801,-0.1694,-0.1597,-0.1542,-0.1353,-0.1314,-0.1396,-0.1438,-0.1449,-0.1549,-0.1577,-0.1524,-0.1553,-0.1489,-0.1239,-0.1239,-0.1238,-0.1788,-0.1788,-0.1616,-0.1576,-0.1463,-0.1345,-0.1093,-0.101,-0.1152,-0.1227,-0.1433,-0.1632,-0.1815,-0.1845,-0.18,-0.1832,-0.1744,0,0]},{"header":{"parameterUnit":"m.s-1","parameterCategory":2,"la1":30.2992,"la2":30.254,"lo1":-89.0895,"lo2":-89.0443,"dy":0.0025,"dx":0.0025,"nx":19,"ny":19,"refTime":"2026-05-07T09:00:00:Z","depth":"2","parameterNumber":3,"parameterNumberName":"V-component_of_CURRENTS"},"data":[0,0,0,-0.0032,-0.003,0.0096,0.0097,0.0297,0.0299,0,0,0,0,0,0,0,0,0,0,0,-0.01,-0.01,-0.0032,-0.003,0.0096,0.0097,0.0297,0.0299,0,0,0,0,0,0,0,0,0,0,0,-0.01,-0.01,-0.01,-0.0029,0.0096,0.0097,0.0297,0.0195,0,0,0,0,0,0,0,0,0,0,0.0069,-0.001,-0.01,-0.01,-0.0029,0.0096,0.0097,0.019,0.0201,0.0247,0,0.024,0,0.0281,0.0312,0.0313,0,0,0,-0.0017,-0.002,0.0022,-0.01,-0.0028,0.0096,0.0043,0.0196,0.0209,0.0263,0.0243,0.0251,0.0284,0.0314,0.0315,0.0389,0.0388,0,0,-0.0024,-0.0073,0.0012,0.0029,-0.0028,0.0039,0.0047,0.0204,0.0199,0.0244,0.0256,0.0287,0.0315,0.0316,0.0389,0.0389,0,0,0,-0.0052,-0.0078,-0.0041,0.002,0.0044,0.0042,0.0051,0.0192,0.0205,0.0259,0.029,0.0316,0.0318,0.039,0.0389,0.0142,0,0,0,-0.0056,-0.0095,-0.0045,-0.0072,0.0039,0.0114,0.0036,0.0194,0.0214,0.0289,0.0316,0.032,0.0391,0.039,0.015,0.0068,0,0,0,-0.0099,-0.0098,-0.0094,-0.0075,-0.0022,0.0112,0.0135,0.0199,0.0233,0.0313,0.0321,0.0391,0.039,0.0158,0.0081,0.0052,0,0,0,-0.0138,-0.0165,-0.0096,-0.0104,-0.0024,0.0028,0.0134,0.0178,0.0231,0.0317,0.0391,0.0389,0.016,0.0089,0.0059,0.02,0.018,0,0,-0.0193,-0.0174,-0.0172,-0.0106,-0.0094,0.0014,0.0001,0.0109,0.0228,0.0347,0.0349,0.0148,0.0082,0.0054,0.011,0.0092,0,0,0,-0.0201,-0.0212,-0.0191,-0.0165,-0.0099,-0.0102,0.0016,0.0058,0.0117,0.0254,0.0186,0.0154,0.0143,0.0243,0.0229,0.0382,0.0382,0.0382,0.0382,-0.0331,-0.028,-0.0298,-0.0251,-0.0235,-0.0178,-0.0185,-0.0105,0.0024,-0.0001,-0.0022,-0.0173,-0.0071,-0.0079,-0.0001,-0.0002,-0.0003,-0.0004,-0.0004,-0.0408,-0.0418,-0.0392,-0.0397,-0.0395,-0.0407,-0.0367,-0.033,-0.0309,-0.0192,-0.0191,0.001,-0.0109,-0.0023,-0.002,-0.0017,-0.0015,-0.0014,-0.0013,-0.0478,-0.0489,-0.0489,-0.0513,-0.057,-0.0547,-0.0583,-0.0564,-0.0496,-0.0549,-0.0318,-0.0311,-0.0299,-0.0523,-0.0523,-0.0524,-0.0524,-0.0525,-0.0525,-0.0556,-0.0561,-0.0595,-0.0621,-0.0642,-0.0674,-0.0692,-0.0682,-0.0616,-0.0536,-0.0533,-0.0345,-0.0328,-0.0323,-0.0534,-0.0532,-0.0531,-0.053,-0.053,-0.0627,-0.0636,-0.0668,-0.0689,-0.0711,-0.0679,-0.0707,-0.0642,-0.0647,-0.0594,-0.0492,-0.049,-0.0369,-0.0352,-0.0344,-0.0548,-0.0548,-0.0548,-0.0548,-0.068,-0.0685,-0.072,-0.0734,-0.0735,-0.0683,-0.0558,-0.0368,-0.0313,-0.015,-0.0166,-0.0028,-0.0037,0.0113,0.012,0.0143,0.0066,0.0068,0.0069,-0.0717,-0.072,-0.0744,-0.0749,-0.0735,-0.0639,-0.0416,0.0007,0.0341,0.0101,0.002,-0.0522,-0.0358,-0.0357,-0.0148,-0.0131,-0.0101,0,0]}],[{"header":{"parameterUnit":"m.s-1","parameterCategory":2,"la1":30.2992,"la2":30.254,"lo1":-89.0895,"lo2":-89.0443,"dy":0.0025,"dx":0.0025,"nx":19,"ny":19,"refTime":"2026-05-07T09:00:00:Z","depth":"4","parameterNumber":2,"parameterNumberName":"U-component_of_CURRENTS"},"data":[0,0,0,-0.1334,-0.1337,-0.1466,-0.1467,-0.1582,-0.1583,0,0,0,0,0,0,0,0,0,0,0,-0.1296,-0.1297,-0.1334,-0.1337,-0.1466,-0.1467,-0.1582,-0.1583,0,0,0,0,0,0,0,0,0,0,0,-0.1296,-0.1297,-0.1298,-0.1337,-0.1466,-0.1467,-0.1582,-0.15,0,0,0,0,0,0,0,0,0,0,-0.1382,-0.1351,-0.1297,-0.1298,-0.1338,-0.1466,-0.1467,-0.1497,-0.1505,-0.1505,0,-0.1526,0,-0.1548,-0.1589,-0.1589,0,0,0,-0.135,-0.1345,-0.1374,-0.1298,-0.1339,-0.1466,-0.1412,-0.1502,-0.1511,-0.1516,-0.1528,-0.1533,-0.155,-0.1589,-0.1589,-0.1679,-0.168,0,0,-0.1343,-0.1326,-0.1367,-0.1379,-0.1373,-0.1407,-0.1415,-0.1508,-0.152,-0.1528,-0.1536,-0.1552,-0.159,-0.159,-0.1679,-0.168,0,0,0,-0.1314,-0.1321,-0.1349,-0.1374,-0.1397,-0.1411,-0.142,-0.1516,-0.1524,-0.1537,-0.1553,-0.159,-0.1591,-0.1679,-0.1679,-0.1693,0,0,0,-0.131,-0.1302,-0.1346,-0.1338,-0.1395,-0.1465,-0.1426,-0.1519,-0.153,-0.1552,-0.159,-0.1592,-0.1678,-0.1679,-0.1692,-0.1674,0,0,0,-0.129,-0.13,-0.1314,-0.1336,-0.1385,-0.1464,-0.1479,-0.1522,-0.1538,-0.1589,-0.1592,-0.1678,-0.1679,-0.169,-0.1673,-0.1674,0,0,0,-0.1269,-0.1288,-0.1314,-0.1354,-0.1384,-0.1473,-0.1479,-0.1558,-0.1607,-0.1591,-0.1678,-0.1679,-0.169,-0.1673,-0.1674,-0.1406,0,0,0,-0.1275,-0.1288,-0.1314,-0.1341,-0.1417,-0.1456,-0.154,-0.1603,-0.1615,-0.1645,-0.1648,-0.1692,-0.1673,-0.1674,-0.1463,0,0,0,0,-0.1306,-0.1323,-0.1354,-0.1408,-0.1475,-0.154,-0.1607,-0.1627,-0.1676,-0.1645,-0.1707,-0.1694,-0.1694,-0.1538,-0.1684,-0.1683,-0.1683,-0.1683,-0.1683,-0.1282,-0.1331,-0.1387,-0.1457,-0.1519,-0.1608,-0.1649,-0.1686,-0.1707,-0.1727,-0.1718,-0.1741,-0.1578,-0.1744,-0.1744,-0.1744,-0.1744,-0.1744,-0.1744,-0.1288,-0.1311,-0.1403,-0.1471,-0.1553,-0.1626,-0.1693,-0.1712,-0.1737,-0.1745,-0.1745,-0.1578,-0.1746,-0.1745,-0.1745,-0.1745,-0.1745,-0.1745,-0.1745,-0.125,-0.1264,-0.1336,-0.144,-0.1539,-0.1632,-0.1641,-0.1706,-0.1736,-0.1739,-0.1574,-0.1743,-0.1727,-0.1751,-0.1751,-0.1751,-0.1751,-0.1751,-0.1751,-0.1159,-0.1232,-0.1274,-0.1407,-0.1468,-0.1543,-0.1613,-0.1581,-0.164,-0.1543,-0.1743,-0.1742,-0.1742,-0.1727,-0.175,-0.175,-0.175,-0.175,-0.175,-0.1067,-0.1112,-0.1151,-0.1213,-0.1338,-0.1391,-0.1492,-0.1384,-0.1346,-0.128,-0.1435,-0.1451,-0.1413,-0.1421,-0.1393,-0.1318,-0.1314,-0.1311,0,-0.0977,-0.1014,-0.1022,-0.1067,-0.1116,-0.1269,-0.1131,-0.1121,-0.117,-0.1166,-0.1375,-0.1558,-0.1566,-0.1532,-0.1533,-0.1503,0,0,0,-0.0901,-0.0915,-0.0879,-0.095,-0.1006,-0.1013,-0.1084,-0.1002,-0.1218,-0.1018,-0.1225,-0.1248,-0.1466,-0.1748,-0.1728,-0.1728,-0.1702,0,0]},{"header":{"parameterUnit":"m.s-1","parameterCategory":2,"la1":30.2992,"la2":30.254,"lo1":-89.0895,"lo2":-89.0443,"dy":0.0025,"dx":0.0025,"nx":19,"ny":19,"refTime":"2026-05-07T09:00:00:Z","depth":"4","parameterNumber":3,"parameterNumberName":"V-component_of_CURRENTS"},"data":[0,0,0,0.007,0.0071,0.0117,0.0117,0.0251,0.0252,0,0,0,0,0,0,0,0,0,0,0,0.0058,0.0058,0.007,0.0071,0.0117,0.0117,0.0251,0.0252,0,0,0,0,0,0,0,0,0,0,0,0.0058,0.0058,0.0058,0.0071,0.0116,0.0117,0.025,0.0201,0,0,0,0,0,0,0,0,0,0,0.0149,0.0118,0.0058,0.0058,0.0071,0.0116,0.0117,0.0198,0.0205,0.0246,0,0.0241,0,0.0243,0.0261,0.0262,0,0,0,0.0089,0.0113,0.0124,0.0058,0.0071,0.0116,0.0101,0.0201,0.0208,0.0254,0.0243,0.0248,0.0245,0.0262,0.0263,0.0393,0.0393,0,0,0.0086,0.0074,0.0118,0.0127,0.007,0.0099,0.0102,0.0205,0.021,0.0244,0.025,0.0247,0.0263,0.0264,0.0392,0.0393,0,0,0,0.0067,0.0072,0.0079,0.0122,0.0121,0.01,0.0103,0.0205,0.0206,0.0252,0.0249,0.0264,0.0265,0.0392,0.0392,0.0318,0,0,0,0.0066,0.006,0.0078,0.0073,0.0118,0.0152,0.0102,0.02,0.0211,0.0248,0.0264,0.0267,0.0391,0.0392,0.0319,0.0249,0,0,0,0.0058,0.0059,0.0059,0.0072,0.0082,0.015,0.0158,0.0202,0.0209,0.0262,0.0267,0.0391,0.0392,0.032,0.0252,0.0279,0,0,0,0.0052,0.0028,0.0059,0.0039,0.0082,0.0111,0.0157,0.0193,0.0233,0.0264,0.0391,0.0392,0.032,0.0255,0.028,0.0282,0,0,0,0.0014,0.0024,0.0013,0.004,0.0039,0.0107,0.0136,0.0206,0.0268,0.0365,0.0368,0.0319,0.0253,0.0279,0.0342,0,0,0,0,-0.0004,-0.0017,-0.0009,-0.0002,0.004,0.0077,0.016,0.0214,0.0297,0.0293,0.036,0.0321,0.034,0.0348,0.0397,0.0397,0.0397,0.0397,0.0397,-0.0059,-0.0047,-0.0067,-0.0043,-0.0012,0.0073,0.0118,0.0214,0.0286,0.0322,0.0292,0.0298,0.0307,0.0351,0.035,0.035,0.035,0.035,0.0349,-0.0128,-0.0145,-0.012,-0.014,-0.008,-0.004,0.0084,0.0143,0.0237,0.0282,0.0307,0.0307,0.0343,0.0344,0.0345,0.0346,0.0347,0.0347,0.0347,-0.0165,-0.0178,-0.019,-0.0212,-0.0199,-0.0122,-0.0091,0.0007,0.0147,0.0159,0.023,0.0262,0.0233,0.0197,0.0197,0.0196,0.0196,0.0196,0.0196,-0.0202,-0.0218,-0.0265,-0.0287,-0.03,-0.0291,-0.0194,-0.0116,0.0021,0.0131,0.0143,0.0247,0.0252,0.0227,0.0193,0.0194,0.0194,0.0194,0.0194,-0.0256,-0.0263,-0.0329,-0.0362,-0.041,-0.0405,-0.0332,-0.0139,-0.0048,0.0076,0.0154,0.0157,0.0187,0.0194,0.0168,0.0115,0.0114,0.0114,0,-0.0283,-0.0298,-0.0374,-0.0435,-0.0484,-0.0463,-0.0344,-0.0226,-0.0037,-0.0031,-0.0055,0.0021,0.0029,0.0051,0.0058,0.002,0,0,0,-0.0317,-0.0328,-0.038,-0.0445,-0.0507,-0.0391,-0.0312,-0.023,-0.0069,0.0053,0.0111,0.0112,0.0108,0.0184,0.0238,0.0244,0.0208,0,0]}]]